Regional Weather Roundup
Issued by NWS Grand Forks, ND

Home | Current Version | Previous Version | Graphics & Text | Print | Product List | Glossary On
Versions: 1 2 3 4 5 6 7 8 9 10 11 12 13 14 15 16 17 18 19 20 21 22 23 24 25 26 27 28 29 30 31 32 33 34 35 36 37 38 39 40 41 42 43 44 45 46 47 48 49 50
322
ASUS43 KFGF 281531
RWRFGF
PRAIRIE TO PINES  WEATHER ROUNDUP
NATIONAL WEATHER SERVICE EASTERN NORTH DAKOTA/GRAND FORKS ND
1000 AM CDT SAT MAY 28 2016

 **SATELLITE DATA USED TO AUGMENT SKY COVER AT AUTOMATED STATIONS**
 *****  WEATHER ACROSS EASTERN NORTH DAKOTA  *****

CITY           SKY/WX    TMP DP  RH WIND       PRES   REMARKS
GRAND FORKS    MOSUNNY   70  54  56 NE10      29.83R
GRAND FRKS AFB MOSUNNY   68  58  69 VRB5      29.84R
GRAND FRKS NWS   N/A     70 N/A N/A N14         N/A
DEVILS LAKE    CLOUDY    57  55  94 N7        29.89R
FARGO          CLOUDY    66  56  70 N6        29.81S
WAHPETON ARPT  CLOUDY    68  50  52 NE7       29.80F
$$

 ***** WEATHER ACROSS CENTRAL AND WESTERN NORTH DAKOTA  *****

CITY           SKY/WX    TMP DP  RH WIND       PRES   REMARKS
BISMARCK       CLOUDY    62  55  77 NE6       29.89R
MINOT          CLOUDY    59  53  80 NE8       29.90R
JAMESTOWN      CLOUDY    62  58  86 N12       29.85R
MINOT AFB      CLOUDY    57  52  82 NE8       29.90S
GARRISON         N/A     60  53  77 VRB5      29.89R
WILLISTON      CLOUDY    58  52  80 E8        29.89S
DICKINSON      MOSUNNY   59  49  69 E3        29.87S
HETTINGER      SUNNY     65  48  54 VRB5      29.89S
$$

 *****  OTHER AIRPORT OBSERVATIONS IN OUR AREA  *****

CITY           SKY/WX    TMP DP  RH WIND       PRES   REMARKS
WALHALLA       FAIR      59  59 100 NW8       29.88R
GRAFTON AIRPOR FAIR      68  59  73 NE6       29.87S
VALLEY CITY AR CLOUDY    63  63 100 NE6       29.86S
CANDO          CLOUDY    55  55 100 N12       29.91F FOG
CAVALIER APRT  FAIR      63  61  94 N7        29.87S
GWINNER        PTSUNNY   63  59  88 N9        29.84R
SHEYENNE NWR     N/A     64  58  81 NE5       29.95S
ROLLA          FOG       50  50 100 N10       29.92S VSB 3/4
 ***** THE ABOVE OBSERVATIONS ARE NON NWS ARE NOT QUALITY
       CONTROLLED AND MAY MIS-REPORT RAIN FOR SNOW...
$$

  *****  WEATHER ACROSS NORTHERN MINNESOTA  *****

CITY           SKY/WX    TMP DP  RH WIND       PRES   REMARKS
FLAG ISLAND    PTSUNNY   63  57  82 NE12      29.87S
WARROAD        CLOUDY    63  57  82 NE12      29.88S
ROSEAU         CLOUDY    63  57  82 NE9       29.87S
HALLOCK        CLOUDY    68  57  68 NE6       29.85S
THF RVR FALLS  CLOUDY    63  54  72 NE6       29.87R
BAUDETTE       CLOUDY    62  58  86 N9        29.85S
WASKISH        CLOUDY    61  55  82 NE9       29.83S
CROOKSTON      MOSUNNY   68  57  68 NE8       29.84S
STEPHEN NDAWN    N/A     68  57  68 NE6         N/A
GREENBUSH NDAW   N/A     63  59  88 E5          N/A
$$
  *****  WEATHER ACROSS CENTRAL AND WEST MINNESOTA  *****

CITY           SKY/WX    TMP DP  RH WIND       PRES   REMARKS
FOSSTON        CLOUDY    57  54  88 N8        29.84S FOG
BEMIDJI        CLOUDY    57  56  95 N7        29.80F
PARK RAPIDS    CLOUDY    60  53  77 N9        29.79S
ELBOW LAKE     FAIR      63  55  73 NE5       29.79F
WADENA         CLOUDY    59  54  82 NE6       29.79S
DETROIT LAKES  MOSUNNY   63  54  72 NE10      29.81F
MOORHEAD       CLOUDY    64  55  72 NE8       29.82S
FERGUS FALLS   CLOUDY    64  54  68 N6        29.76F
MORRIS MN      PTSUNNY   63  57  82 E5        29.78F
STAPLES        CLOUDY    57  55  94 N6        29.78F
$$
  *****  WEATHER ELSEWHERE ACROSS MINNESOTA  *****

CITY           SKY/WX    TMP DP  RH WIND       PRES   REMARKS
DULUTH         FOG       54  52  93 N7        29.77F VSB 3/4
INTRNTL FALLS  CLOUDY    60  55  83 NE9       29.83F HAZE
ELY            CLOUDY    57  55  94 CALM      29.80R FOG
CLOQUET        CLOUDY    54  52  94 CALM      29.77F FOG
WHEATON        PTSUNNY   64  57  77 N7        29.81F
BRAINERD       CLOUDY    58  55  90 CALM      29.78S
HIBBING        CLOUDY    58  57  97 E6        29.78S FOG
ALEXANDRIA     PTSUNNY   62  55  77 NE9       29.79S
SAINT CLOUD    CLOUDY    59  56  89 N5        29.76S
MINNEAPOLIS    CLOUDY    63  58  83 NE6       29.77R
$$

  *****  WEATHER ACROSS SOUTH DAKOTA  *****

CITY           SKY/WX    TMP DP  RH WIND       PRES   REMARKS
SIOUX FALLS    LGT RAIN  61  59  93 N5        29.77R
BROOKINGS      RAIN      59  57  94 NE6       29.78R
WATERTOWN      CLOUDY    60  57  89 NE12      29.80S
HURON          CLOUDY    60  59  96 NW10G25   29.79S FOG
SISSETON         N/A     64  55  72 E8        29.80R
ABERDEEN       LGT RAIN  62  59  90 NE10      29.83R
MITCHELL       LGT RAIN  61  60  97 N3        29.80R FOG
PIERRE         CLOUDY    61  54  77 NW10      29.83R
MOBRIDGE       CLOUDY    61  53  75 NW7       29.83R
RAPID CITY     SUNNY     64  47  53 NW3       29.91R
$$

  *****  SOME WEATHER IN NEARBY STATES *****

CITY           SKY/WX    TMP DP  RH WIND       PRES   REMARKS
GLASGOW MT     CLOUDY    53  51  93 W12       29.89R
GREAT FALLS MT MOSUNNY   52  32  46 SW18      29.98R
CHEYENNE WY    CLOUDY    56  37  49 W8        30.04R
SCOTTSBLUFF NE SUNNY     58  45  62 W8        29.97R
OMAHA NE       CLOUDY    65  60  84 S9        29.78R
DES MOINES IA  CLOUDY    70  63  78 S7        29.77S
DAVENPORT IA   MOSUNNY   73  65  75 S21G26    29.84S
CHICAGO IL     CLOUDY    74  65  73 S15G24    29.90R
EAU CLAIRE WI  CLOUDY    69  64  84 N6        29.75S
LA CROSSE WI   LGT RAIN  69  64  84 SW8       29.75S
$$

  *****  SOME NATIONAL WEATHER *****

CITY           SKY/WX    TMP DP  RH WIND       PRES   REMARKS
LA GUARDIA NY  MOSUNNY   85  69  58 SW6       30.12S
RALEIGH NC     PTSUNNY   78  60  53 SE6       30.20S
ATLANTA GA     MOSUNNY   78  54  43 E8G18     30.17S
NEW ORLEANS LA PTSUNNY   82  71  69 SE12      29.98R
OKLAHOMA CITY  MOSUNNY   70  61  73 S6        29.95R
ALBUQUERQUE NM SUNNY     61  31  32 CALM      30.10R
SALT LAKE CITY MOSUNNY   61  44  53 VRB3      30.03R
LOS ANGELES CA CLOUDY    61  55  82 SW3       29.89R
BOISE ID       SUNNY     50  32  50 W6        30.09R
SEATTLE WA     DRIZZLE   50  47  89 S10       30.09S FOG
$$

*** WEATHER ACROSS MANITOBA...SASKATCHEWAN AND ONTARIO ***
                ***ONTARIO***

CITY           SKY/WX    TMP DP  RH WIND       PRES   REMARKS
GERALDTON      DRIZZLE   59  57  94 E14G23    29.93F FOG
THUNDER BAY    LGT RAIN  59  59 100 E9        29.82S
SIOUX LOOKOUT  CLOUDY    55  54  94 NE5       29.93R
TORONTO        PTSUNNY   81  66  61 SE10      30.07R
BIG TROUT LK   CLOUDY    39  37  93 E10G17    30.19F
PICKLE LAKE    CLOUDY    45  45 100 E12G17    30.04R
DRYDEN         CLOUDY    57  55  94 NE10G21   29.90S
KENORA         CLOUDY    57  55  94 NE9       29.91S
$$
                *** MANITOBA***

CITY           SKY/WX    TMP DP  RH WIND       PRES   REMARKS
BRANDON        CLOUDY    52  50  93 NE18      29.93S
DAUPHIN        LGT RAIN  50  48  93 NE12      29.99S FOG
ISLAND LAKE    CLOUDY    43  39  87 E12       30.14S
PILOT MOUND      N/A     55  54  94 N8          N/A
THE PAS        CLOUDY    46  41  81 E9        30.09S
THOMPSON       DRIZZLE   39  37  93 E7        30.21R
WINNIPEG       CLOUDY    59  57  94 NE13      29.90S
LYNN LAKE      CLOUDY    37  34  87 SE10      30.17S
CHURCHILL      CLOUDY    36  30  80 S9        30.36S
GILLAM         DRIZZLE   36  34  93 E6        30.28R
$$
                ***SASKATCHEWAN***

CITY           SKY/WX    TMP DP  RH WIND       PRES   REMARKS
ESTEVAN        CLOUDY    52  50  93 E10       29.92S
KINDERSLEY     SHOWER    50  46  87 S7        29.87
LLOYDMINSTER   LGT RAIN  54  52  94 SE7       29.85S FOG
PRINCE ALBERT  CLOUDY    48  46  93 E12G17    29.99S FOG
REGINA         CLOUDY    54  48  82 E10G17    29.93S
YORKTON        CLOUDY    52  46  82 NE8       29.98S
N. BATTLEFORD  CLOUDY    52  52 100 SE21G26   29.90R
LA RONGE       CLOUDY    48  43  81 SE10      30.03S
SASKATOON      CLOUDY    54  50  87 SE16      29.93F
SWIFT CURRENT  LGT RAIN  48  46  93 W17       29.87R
$$
NOTE: THESE ARE AUTOMATED STATIONS WITH LIMITED QUALITY CONTROL
      "FAIR" INDICATES FEW OR NO CLOUDS BELOW 12,000 FEET WITH NO
      SIGNIFICANT WEATHER AND/OR OBSTRUCTIONS TO VISIBILITY.
      SKY/WX - SKY CONDITION AND SIGNIFICANT WEATHER.
      TMP - AIR TEMPERATURE.    DP   - DEWPOINT TEMPERATURE.
      RH  - RELATIVE HUMIDITY.  PRES - PRESSURE.
      HX  - HEAT INDEX.         WCI  - WIND CHILL INDEX.
$




USA.gov is the U.S. government's official web portal to all federal, state and local government web resources and services.